IRIDIUM 53 [-]

Last updated on Wed Sep 26 2018 02:52:39 GMT+0000 (Coordinated Universal Time)

1 25173U 98010E 18267.91144554 .03328627 -16553-5 85295-3 0 9992 2 25173 86.7867 155.6567 0272168 142.7570 219.2933 15.77591966 78234

Satellite not in orbit